Location: ????????
(37.6846°N, 24.0673°E)
Time: 14:41:48
(UTC+00:00)

CZ-2D R/B - Pass Details

Date: 14 July 2020
Orbit: 792 x 845 km, 98.7° (Epoch: 03 August)

Event Time Altitude Azimuth Distance (km) Brightness Sun altitude
Rises 00:40:44 0° 4° (N) 3,349 6.3 -23.2°
Reaches altitude 10° 00:43:12 10° 357° (N) 2,421 5.3 -22.9°
Maximum altitude 00:48:07 39° 290° (WNW) 1,232 2.9 -22.3°
Enters shadow 00:49:08 35° 265° (W) 1,307 2.8 -22.2°
